"Timestamp","TZ","WindDir_Mean (deg)","WindSpd_Mean (km/h)","WindSpd_Min (km/h)","WindSpd_Max (km/h)","Temp_Mean (deg)","RH_Mean (%)","MSLP_Mean (hPa)","Rain_Acc (mm)","Rain_Intensity (mm/h)","Hail_Acc (hits/cm2)","Hail_Intensity (hits/cm2hr)","Solar_Mean (W/m2)"
2020/09/18 00:00:00.015,n,248,2.16,1.44,2.88,17.8,78.9,1026.42,0,0,0,0,0.031357
2020/09/18 00:01:00.000,n,200,3.96,2.52,4.68,17.8,78.9,1026.42,0,0,0,0,0.0383
2020/09/18 00:02:00.000,n,176,3.96,3.24,4.32,17.8,78.8,1026.42,0,0,0,0,0.035706
2020/09/18 00:03:00.000,n,179,5.4,4.68,6.12,17.8,78.8,1026.42,0,0,0,0,0.033073
2020/09/18 00:04:00.005,n,160,4.32,3.24,5.04,17.8,78.8,1026.42,0,0,0,0,0.037422
2020/09/18 00:05:00.003,n,193,2.88,1.44,4.32,17.8,78.8,1026.42,0,0,0,0,0.036583
2020/09/18 00:06:00.000,n,175,1.8,1.08,2.16,17.8,78.8,1026.42,0,0,0,0,0.035706
2020/09/18 00:07:00.000,n,184,1.8,1.44,2.88,17.8,78.8,1026.42,0,0,0,0,0.034828
2020/09/18 00:08:00.009,n,248,1.8,1.44,2.16,17.8,78.8,1026.42,0,0,0,0,0.035706
2020/09/18 00:09:00.006,n,101,0.72,0.36,0.72,17.8,78.8,1026.42,0,0,0,0,0.033951
2020/09/18 00:10:00.000,n,341,0.36,0,1.08,17.8,78.8,1026.42,0,0,0,0,0.029602
2020/09/18 00:11:00.001,n,151,0.72,0.36,0.72,17.8,78.9,1026.42,0,0,0,0,0.035706
2020/09/18 00:12:00.000,n,195,0.72,0.36,0.72,17.8,78.9,1026.42,0,0,0,0,0.032234
2020/09/18 00:13:00.000,n,45,2.16,1.8,2.52,17.8,78.8,1026.42,0,0,0,0,0.034828
2020/09/18 00:14:00.008,n,215,0.36,0.36,0.72,17.8,78.7,1026.42,0,0,0,0,0.032234
2020/09/18 00:15:00.006,n,134,2.52,1.44,2.88,17.8,78.6,1026.42,0,0,0,0,0.030479
2020/09/18 00:16:00.002,n,145,1.08,0.36,1.44,17.8,78.6,1026.42,0,0,0,0,0.027847
2020/09/18 00:17:00.000,n,134,0.72,0.36,0.72,17.8,78.8,1026.42,0,0,0,0,0.033951
2020/09/18 00:18:00.013,n,327,1.44,1.08,1.8,17.8,78.8,1026.42,0,0,0,0,0.030479
2020/09/18 00:19:00.000,n,199,0.72,0.36,1.08,17.8,78.8,1026.42,0,0,0,0,0.033073
2020/09/18 00:20:00.000,n,33,0.36,0.36,1.08,17.8,78.9,1026.42,0,0,0,0,0.033073
2020/09/18 00:21:00.005,n,263,1.8,1.44,2.16,17.8,78.8,1026.42,0,0,0,0,0.033951
2020/09/18 00:22:00.000,n,251,2.16,1.8,2.52,17.8,78.8,1026.42,0,0,0,0,0.029602
2020/09/18 00:23:00.000,n,323,0.36,0,0.72,17.8,79,1026.42,0,0,0,0,0.032234
2020/09/18 00:24:00.000,n,250,2.88,1.8,3.6,17.8,79.1,1026.42,0,0,0,0,0.027008
2020/09/18 00:25:00.008,n,246,1.44,0.72,2.16,17.8,78.9,1026.42,0,0,0,0,0.034828
2020/09/18 00:26:00.005,n,278,1.44,0.36,2.88,17.8,78.9,1026.42,0,0,0,0,0.031357
2020/09/18 00:27:00.002,n,252,1.8,1.08,2.16,17.8,79,1026.42,0,0,0,0,0.031357
2020/09/18 00:28:00.000,n,272,1.44,1.08,1.8,17.8,79,1026.42,0,0,0,0,0.033951
2020/09/18 00:29:00.000,n,256,4.68,4.32,5.04,17.8,78.9,1026.42,0,0,0,0,0.027847
2020/09/18 00:30:00.000,n,268,2.88,2.16,3.6,17.8,79.4,1026.42,0,0,0,0,0.036583
2020/09/18 00:31:00.006,n,251,3.6,3.24,3.96,17.8,79,1026.42,0,0,0,0,0.029602
2020/09/18 00:32:00.002,n,241,1.08,0.36,1.08,17.7,79.1,1026.42,0,0,0,0,0.032234
2020/09/18 00:33:00.000,n,246,2.88,2.88,3.24,17.7,78.9,1026.42,0,0,0,0,0.028725
2020/09/18 00:34:00.000,n,262,5.04,4.68,5.76,17.7,79.2,1026.42,0,0,0,0,0.026131
2020/09/18 00:35:00.010,n,236,1.44,1.44,1.8,17.7,79.1,1026.42,0,0,0,0,0.027847
2020/09/18 00:36:00.007,n,166,0.72,0.72,0.72,17.7,79.1,1026.42,0,0,0,0,0.030479
2020/09/18 00:37:00.000,n,67,1.8,0.72,2.16,17.6,79.3,1026.42,0,0,0,0,0.026131
2020/09/18 00:38:00.001,n,281,2.52,2.16,3.24,17.6,79.2,1026.42,0,0,0,0,0.033951
2020/09/18 00:39:00.000,n,104,0.72,0.72,1.08,17.6,79.2,1026.42,0,0,0,0,0.028725
2020/09/18 00:40:00.000,n,236,1.08,0.72,1.08,17.6,79.3,1026.32,0,0,0,0,0.028725
2020/09/18 00:41:00.009,n,264,3.24,2.88,3.6,17.6,79.2,1026.32,0,0,0,0,0.027008
2020/09/18 00:42:00.006,n,181,1.44,1.44,1.8,17.6,79.1,1026.32,0,0,0,0,0.027847
2020/09/18 00:43:00.003,n,248,3.24,1.44,3.96,17.6,79.2,1026.42,0,0,0,0,0.026131
2020/09/18 00:44:00.001,n,262,2.88,2.16,2.88,17.6,79.4,1026.42,0,0,0,0,0.024376
2020/09/18 00:45:00.014,n,254,0.36,0,0.36,17.6,79.3,1026.42,0,0,0,0,0.029602
2020/09/18 00:46:00.000,n,3,1.44,0.72,1.8,17.6,79.3,1026.42,0,0,0,0,0.030479
2020/09/18 00:47:00.000,n,175,0.72,0.36,1.08,17.6,79.4,1026.42,0,0,0,0,0.026131
2020/09/18 00:48:00.000,n,121,1.08,0.72,1.08,17.6,79.3,1026.42,0,0,0,0,0.022659
2020/09/18 00:49:00.002,n,210,1.44,1.44,1.8,17.6,79.3,1026.42,0,0,0,0,0.024376
2020/09/18 00:50:00.000,n,249,3.6,3.24,3.96,17.6,79.4,1026.42,0,0,0,0,0.028725
2020/09/18 00:51:00.000,n,262,3.96,2.88,4.32,17.6,79.3,1026.42,0,0,0,0,0.023499
2020/09/18 00:52:00.009,n,88,2.52,1.44,3.96,17.6,79.4,1026.42,0,0,0,0,0.032234
2020/09/18 00:53:00.006,n,324,2.16,0.72,3.24,17.6,79.4,1026.32,0,0,0,0,0.028725
2020/09/18 00:54:00.004,n,265,3.24,2.52,3.6,17.6,79.4,1026.32,0,0,0,0,0.026131
2020/09/18 00:55:00.001,n,211,3.24,2.88,3.96,17.6,79.3,1026.32,0,0,0,0,0.023499
2020/09/18 00:56:00.000,n,208,1.8,1.44,1.8,17.6,79.1,1026.32,0,0,0,0,0.025253
2020/09/18 00:57:00.000,n,350,0.72,0.36,1.44,17.6,79.2,1026.32,0,0,0,0,0.022659
2020/09/18 00:58:00.000,n,41,1.44,0.72,1.8,17.6,79.3,1026.22,0,0,0,0,0.028725
2020/09/18 00:59:00.006,n,215,2.16,1.44,2.88,17.6,79.2,1026.22,0,0,0,0,0.027885
2020/09/18 01:00:00.000,n,115,2.52,1.44,2.88,17.6,79.1,1026.22,0,0,0,0,0.031357
2020/09/18 01:01:00.000,n,358,1.44,1.08,1.44,17.6,79.2,1026.22,0,0,0,0,0.02964
2020/09/18 01:02:00.010,n,32,0.72,0.36,1.08,17.6,79.2,1026.22,0,0,0,0,0.034866
2020/09/18 01:03:00.007,n,204,2.16,1.8,2.52,17.6,79.3,1026.22,0,0,0,0,0.031357
2020/09/18 01:04:00.000,n,116,1.44,0.72,1.8,17.6,79.4,1026.22,0,0,0,0,0.034866
2020/09/18 01:05:00.001,n,152,0.72,0.36,0.72,17.6,79.3,1026.22,0,0,0,0,0.036583
2020/09/18 01:06:00.000,n,182,0.36,0.36,0.72,17.6,79.5,1026.22,0,0,0,0,0.02964
2020/09/18 01:07:00.000,n,115,0.36,0,1.08,17.6,79.4,1026.22,0,0,0,0,0.036583
2020/09/18 01:08:00.000,n,160,0,0,0.36,17.6,79.3,1026.22,0,0,0,0,0.034866
2020/09/18 01:09:00.007,n,187,0.72,0.36,1.08,17.6,79.2,1026.22,0,0,0,0,0.033112
2020/09/18 01:10:00.004,n,5,1.08,0.36,1.44,17.6,79.1,1026.22,0,0,0,0,0.039215
2020/09/18 01:11:00.002,n,274,1.08,1.08,1.08,17.6,79,1026.12,0,0,0,0,0.036583
2020/09/18 01:12:00.015,n,179,1.08,0.36,2.16,17.6,79.5,1026.12,0,0,0,0,0.035706
2020/09/18 01:13:00.000,n,238,1.08,0.72,1.44,17.6,79.3,1026.12,0,0,0,0,0.034866
2020/09/18 01:14:00.000,n,261,3.24,2.52,3.6,17.6,79.3,1026.12,0,0,0,0,0.02964
2020/09/18 01:15:00.000,n,242,2.16,1.8,2.88,17.6,79.2,1026.12,0,0,0,0,0.033989
2020/09/18 01:16:00.004,n,273,3.96,3.6,4.32,17.6,79.4,1026.12,0,0,0,0,0.032234
2020/09/18 01:17:00.001,n,264,2.88,2.52,2.88,17.5,79.4,1026.12,0,0,0,0,0.030518
2020/09/18 01:18:00.000,n,270,1.8,1.44,1.8,17.5,79.7,1026.22,0,0,0,0,0.036583
2020/09/18 01:19:00.000,n,260,1.8,1.44,2.16,17.5,79.9,1026.22,0,0,0,0,0.033989
2020/09/18 01:20:00.009,n,172,0.72,0.36,0.72,17.5,80,1026.22,0,0,0,0,0.032234
2020/09/18 01:21:00.007,n,213,1.44,1.08,1.8,17.5,79.9,1026.22,0,0,0,0,0.032234
2020/09/18 01:22:00.000,n,300,1.08,0.36,1.8,17.5,80,1026.22,0,0,0,0,0.033989
2020/09/18 01:23:00.001,n,279,2.16,1.44,2.52,17.5,80,1026.22,0,0,0,0,0.030518
2020/09/18 01:24:00.000,n,274,2.52,2.16,2.52,17.5,80.1,1026.22,0,0,0,0,0.031357
2020/09/18 01:25:00.000,n,247,3.6,3.24,3.6,17.5,80.2,1026.22,0,0,0,0,0.034866
2020/09/18 01:26:00.009,n,208,1.08,0.72,1.08,17.5,80.2,1026.22,0,0,0,0,0.030518
2020/09/18 01:27:00.006,n,148,1.08,0.72,1.44,17.4,80.3,1026.22,0,0,0,0,0.033989
2020/09/18 01:28:00.004,n,237,1.8,1.8,2.16,17.4,80.4,1026.12,0,0,0,0,0.032234
2020/09/18 01:29:00.001,n,192,0.72,0.36,0.72,17.4,80.7,1026.12,0,0,0,0,0.033112
2020/09/18 01:30:00.015,n,235,2.16,2.16,2.52,17.5,80.6,1026.12,0,0,0,0,0.027885
2020/09/18 01:31:00.000,n,89,0.72,0.36,1.44,17.4,80.5,1026.12,0,0,0,0,0.033112
2020/09/18 01:32:00.000,n,293,3.6,2.16,4.68,17.4,80.7,1026.12,0,0,0,0,0.033989
2020/09/18 01:33:00.000,n,263,1.08,0.36,1.8,17.4,80.7,1026.12,0,0,0,0,0.02964
2020/09/18 01:34:00.004,n,173,1.08,0.72,1.8,17.4,80.7,1026.12,0,0,0,0,0.02964
2020/09/18 01:35:00.003,n,144,0.72,0.36,1.08,17.4,80.7,1026.12,0,0,0,0,0.031357
2020/09/18 01:36:00.000,n,117,1.44,1.08,1.8,17.4,80.7,1026.12,0,0,0,0,0.036583
2020/09/18 01:37:00.012,n,87,0.72,0.36,0.72,17.4,80.7,1026.12,0,0,0,0,0.034866
2020/09/18 01:38:00.009,n,128,2.16,1.8,2.52,17.4,80.8,1026.22,0,0,0,0,0.033989
2020/09/18 01:39:00.007,n,115,1.8,1.8,2.16,17.3,80.8,1026.12,0,0,0,0,0.031357
2020/09/18 01:40:00.000,n,150,1.8,1.08,2.16,17.3,80.8,1026.22,0,0,0,0,0.033112
2020/09/18 01:41:00.001,n,48,2.16,1.8,2.52,17.3,81,1026.22,0,0,0,0,0.02964
2020/09/18 01:42:00.000,n,160,1.44,1.08,1.44,17.3,80.8,1026.22,0,0,0,0,0.02964
2020/09/18 01:43:00.000,n,83,1.08,0.72,1.44,17.3,81,1026.22,0,0,0,0,0.031357
2020/09/18 01:44:00.008,n,299,0.72,0.36,1.44,17.3,80.9,1026.12,0,0,0,0,0.027008
2020/09/18 01:45:00.005,n,273,3.6,2.52,4.32,17.4,81.2,1026.12,0,0,0,0,0.033112
2020/09/18 01:46:00.003,n,316,1.08,0.36,1.44,17.4,81.2,1026.12,0,0,0,0,0.033989
2020/09/18 01:47:00.000,n,262,2.16,1.8,2.52,17.4,81.5,1026.12,0,0,0,0,0.02964
2020/09/18 01:48:00.014,n,68,0.72,0.36,0.72,17.4,81.2,1026.12,0,0,0,0,0.027008
2020/09/18 01:49:00.000,n,232,1.44,0.72,1.44,17.4,81.1,1026.12,0,0,0,0,0.030518
2020/09/18 01:50:00.000,n,134,1.44,1.08,1.44,17.4,81.1,1026.22,0,0,0,0,0.033112
2020/09/18 01:51:00.000,n,259,1.8,1.44,2.52,17.3,81,1026.12,0,0,0,0,0.028763
2020/09/18 01:52:00.004,n,222,1.08,0.36,1.8,17.3,81,1026.12,0,0,0,0,0.031357
2020/09/18 01:53:00.001,n,248,0.36,0,0.72,17.3,81.1,1026.12,0,0,0,0,0.028763
2020/09/18 01:54:00.000,n,205,1.44,1.08,2.16,17.3,81.1,1026.12,0,0,0,0,0.027885
2020/09/18 01:55:00.012,n,153,0.72,0.36,1.08,17.3,81.1,1026.12,0,0,0,0,0.027885
2020/09/18 01:56:00.009,n,163,1.8,0.72,2.16,17.2,81.1,1026.12,0,0,0,0,0.02964
2020/09/18 01:57:00.008,n,131,2.52,2.16,2.88,17.2,81.1,1026.12,0,0,0,0,0.030518
2020/09/18 01:58:00.000,n,149,3.96,3.24,4.68,17.2,81.1,1026.12,0,0,0,0,0.02964
2020/09/18 01:59:00.001,n,101,2.52,2.16,3.6,17.2,81.2,1026.12,0,0,0,0,0.027008
2020/09/18 02:00:00.000,n,146,3.6,2.52,5.04,17.2,81.2,1026.12,0,0,0,0,0.030518
2020/09/18 02:01:00.000,n,8,0.72,0.36,0.72,17.1,81.2,1026.12,0,0,0,0,0.02964
2020/09/18 02:02:00.008,n,56,1.08,0.36,1.08,17.1,81.4,1026.12,0,0,0,0,0.028763
2020/09/18 02:03:00.007,n,157,1.08,0.72,2.16,17.1,81.4,1026.12,0,0,0,0,0.025291
2020/09/18 02:04:00.004,n,152,1.8,1.08,2.16,17.1,81.3,1026.12,0,0,0,0,0.026131
2020/09/18 02:05:00.001,n,244,0.36,0.36,0.72,17.1,81.5,1026.12,0,0,0,0,0.025291
2020/09/18 02:06:00.015,n,142,1.44,0.72,2.16,17.1,81.6,1026.12,0,0,0,0,0.027008
2020/09/18 02:07:00.000,n,121,0.72,0.36,0.72,17.1,81.6,1026.12,0,0,0,0,0.028763
2020/09/18 02:08:00.000,n,138,1.44,1.44,1.8,17.1,81.4,1026.12,0,0,0,0,0.027885
2020/09/18 02:09:00.000,n,296,1.08,0.36,1.08,17.1,81.4,1026.12,0,0,0,0,0.02964
2020/09/18 02:10:00.004,n,275,4.32,4.32,4.68,17.1,81.7,1026.12,0,0,0,0,0.026131
2020/09/18 02:11:00.002,n,245,1.08,1.08,1.44,17.1,81.5,1026.12,0,0,0,0,0.023537
2020/09/18 02:12:00.000,n,268,2.16,1.08,3.24,17.1,81.6,1026.12,0,0,0,0,0.028763
2020/09/18 02:13:00.012,n,258,2.88,2.52,3.24,17.1,82.2,1026.12,0,0,0,0,0.031357
2020/09/18 02:14:00.008,n,209,1.08,0.36,2.52,17.2,81.9,1026.12,0,0,0,0,0.030518
2020/09/18 02:15:00.006,n,250,2.88,2.52,2.88,17.2,82.3,1026.12,0,0,0,0,0.02964
2020/09/18 02:16:00.000,n,300,0.36,0.36,0.72,17.2,82.1,1026.12,0,0,0,0,0.032234
2020/09/18 02:17:00.001,n,233,2.88,2.52,3.24,17.2,81.8,1026.12,0,0,0,0,0.027885
2020/09/18 02:18:00.000,n,285,3.6,3.24,3.96,17.2,81.6,1026.12,0,0,0,0,0.027008
2020/09/18 02:19:00.000,n,245,4.32,3.6,5.4,17.1,81.4,1026.12,0,0,0,0,0.02964
2020/09/18 02:20:00.000,n,253,1.8,1.08,2.52,17.1,81.4,1026.12,0,0,0,0,0.030518
2020/09/18 02:21:00.007,n,300,0.36,0.36,0.72,17,81.7,1026.12,0,0,0,0,0.028763
2020/09/18 02:22:00.004,n,259,4.32,3.96,5.04,17,81.9,1026.12,0,0,0,0,0.031357
2020/09/18 02:23:00.002,n,273,3.24,2.88,3.96,17,81.7,1026.02,0,0,0,0,0.028763
2020/09/18 02:24:00.015,n,256,3.24,2.88,3.6,17,82.3,1026.02,0,0,0,0,0.025291
2020/09/18 02:25:00.000,n,250,2.88,2.16,3.6,17.1,82.2,1026.02,0,0,0,0,0.031357
2020/09/18 02:26:00.000,n,232,5.4,4.68,6.12,17.1,82,1026.02,0,0,0,0,0.027885
2020/09/18 02:27:00.000,n,307,1.44,1.08,2.16,17,82,1026.02,0,0,0,0,0.026131
2020/09/18 02:28:00.004,n,289,3.24,2.52,3.6,17,82.4,1026.02,0,0,0,0,0.02964
2020/09/18 02:29:00.002,n,253,2.16,1.8,2.52,17,82.2,1026.02,0,0,0,0,0.027885
2020/09/18 02:30:00.000,n,252,2.16,1.8,2.16,17,82,1026.02,0,0,0,0,0.024414
2020/09/18 02:31:00.000,n,249,2.52,2.52,2.88,17,82.1,1026.02,0,0,0,0,0.022659
2020/09/18 02:32:00.009,n,276,3.24,2.88,3.24,16.9,82.3,1026.02,0,0,0,0,0.021782
2020/09/18 02:33:00.006,n,154,0.72,0.36,0.72,16.9,82.2,1026.02,0,0,0,0,0.025291
2020/09/18 02:34:00.000,n,262,1.08,0.36,2.52,16.9,82.1,1026.02,0,0,0,0,0.024414
2020/09/18 02:35:00.000,n,265,2.16,2.16,2.52,16.9,82,1026.02,0,0,0,0,0.025291
2020/09/18 02:36:00.000,n,98,0.72,0.72,1.44,16.9,82,1025.92,0,0,0,0,0.020943
2020/09/18 02:37:00.000,n,113,1.8,1.44,1.8,16.8,82.1,1025.92,0,0,0,0,0.023537
2020/09/18 02:38:00.008,n,286,1.8,1.08,2.16,16.8,82.1,1025.92,0,0,0,0,0.022659
2020/09/18 02:39:00.006,n,284,0.72,0.36,0.72,16.8,82.1,1025.92,0,0,0,0,0.020065
2020/09/18 02:40:00.002,n,187,1.8,1.08,2.52,16.8,82.1,1025.92,0,0,0,0,0.025291
2020/09/18 02:41:00.000,n,335,0.36,0,0.72,16.8,82.4,1025.92,0,0,0,0,0.023537
2020/09/18 02:42:00.014,n,296,0.36,0.36,0.72,16.8,82.4,1025.92,0,0,0,0,0.024414
2020/09/18 02:43:00.000,n,127,1.44,0.72,2.16,16.8,82.4,1025.92,0,0,0,0,0.018311
2020/09/18 02:44:00.000,n,85,1.08,1.08,1.44,16.8,82.4,1025.92,0,0,0,0,0.018311
2020/09/18 02:45:00.000,n,153,3.6,3.24,3.96,16.8,82.4,1025.92,0,0,0,0,0.031357
2020/09/18 02:46:00.002,n,88,1.08,0.72,1.44,16.8,82.4,1025.92,0,0,0,0,0.033073
2020/09/18 02:47:00.001,n,164,2.52,2.16,2.88,16.8,82.4,1025.92,0,0,0,0,0.033073
2020/09/18 02:48:00.000,n,167,2.52,1.44,3.24,16.8,82.4,1025.92,0,0,0,0,0.033073
2020/09/18 02:49:00.011,n,187,2.16,1.8,2.88,16.8,82.4,1026.02,0,0,0,0,0.032234
2020/09/18 02:50:00.008,n,132,3.96,3.6,4.68,16.700002,82.3,1026.02,0,0,0,0,0.034828
2020/09/18 02:51:00.005,n,151,1.44,1.08,1.44,16.700002,82.3,1026.02,0,0,0,0,0.031357
2020/09/18 02:52:00.002,n,150,3.96,3.6,4.32,16.700002,82.4,1026.02,0,0,0,0,0.033073
2020/09/18 02:53:00.000,n,177,2.88,2.16,3.6,16.6,82.6,1026.02,0,0,0,0,0.034828
2020/09/18 02:54:00.000,n,144,0.72,0.36,1.08,16.6,82.7,1025.92,0,0,0,0,0.033073
2020/09/18 02:55:00.000,n,158,1.44,1.08,1.44,16.6,82.7,1025.92,0,0,0,0,0.034828
2020/09/18 02:56:00.006,n,167,1.8,0.72,2.52,16.6,82.8,1025.92,0,0,0,0,0.031357
2020/09/18 02:57:00.004,n,148,1.08,0.72,1.44,16.6,82.8,1025.92,0,0,0,0,0.030479
2020/09/18 02:58:00.002,n,154,2.52,2.16,2.52,16.6,82.8,1025.92,0,0,0,0,0.035706
2020/09/18 02:59:00.000,n,196,1.44,1.08,1.8,16.6,82.9,1025.92,0,0,0,0,0.033951
2020/09/18 03:00:00.014,n,150,1.08,1.08,1.08,16.5,82.9,1025.92,0,0,0,0,0.031357
2020/09/18 03:01:00.000,n,191,1.8,0.36,2.52,16.5,83.1,1025.92,0,0,0,0,0.030479
2020/09/18 03:02:00.000,n,167,2.52,1.8,3.6,16.5,83.1,1025.92,0,0,0,0,0.027885
2020/09/18 03:03:00.000,n,146,4.68,3.6,6.48,16.5,83.1,1025.92,0,0,0,0,0.028725
2020/09/18 03:04:00.003,n,181,2.88,1.8,3.6,16.5,83.2,1025.92,0,0,0,0,0.031357
2020/09/18 03:05:00.000,n,165,2.16,1.8,2.16,16.5,83.2,1025.92,0,0,0,0,0.027885
2020/09/18 03:06:00.000,n,192,2.88,2.52,3.24,16.5,83.2,1025.92,0,0,0,0,0.027008
2020/09/18 03:07:00.010,n,332,0.72,0.36,0.72,16.5,83.2,1025.92,0,0,0,0,0.023499
2020/09/18 03:08:00.007,n,117,2.88,1.8,3.6,16.5,83.3,1025.92,0,0,0,0,0.025253
2020/09/18 03:09:00.004,n,85,3.6,3.24,3.96,16.5,83.3,1025.92,0,0,0,0,0.027008
2020/09/18 03:10:00.001,n,198,3.96,3.24,4.68,16.5,83.3,1025.92,0,0,0,0,0.028725
2020/09/18 03:11:00.000,n,134,3.6,3.24,3.96,16.5,83.2,1025.92,0,0,0,0,0.024376
2020/09/18 03:12:00.000,n,141,1.8,1.08,2.16,16.5,83.3,1025.92,0,0,0,0,0.025253
2020/09/18 03:13:00.000,n,9,1.44,0.72,2.52,16.5,83.3,1025.92,0,0,0,0,0.018311
2020/09/18 03:14:00.006,n,160,4.68,1.08,5.4,16.5,83.4,1025.92,0,0,0,0,0.024376
2020/09/18 03:15:00.004,n,178,1.44,1.08,1.8,16.5,83.2,1025.92,0,0,0,0,0.022659
2020/09/18 03:16:00.000,n,33,2.52,1.44,3.6,16.5,83.6,1025.92,0,0,0,0,0.023499
2020/09/18 03:17:00.000,n,294,3.96,3.24,4.32,16.5,83.4,1025.92,0,0,0,0,0.027008
2020/09/18 03:18:00.013,n,248,1.8,1.08,2.16,16.5,83.3,1026.02,0,0,0,0,0.020905
2020/09/18 03:19:00.000,n,178,1.08,0.72,1.8,16.5,83.2,1026.02,0,0,0,0,0.027008
2020/09/18 03:20:00.000,n,275,1.44,0.72,2.52,16.5,83.2,1025.92,0,0,0,0,0.021782
2020/09/18 03:21:00.004,n,206,1.08,0.72,1.08,16.5,83.1,1025.92,0,0,0,0,0.024376
2020/09/18 03:22:00.001,n,68,2.52,2.16,2.88,16.4,83.2,1025.92,0,0,0,0,0.018311
2020/09/18 03:23:00.000,n,193,0.36,0.36,0.72,16.4,83.3,1025.92,0,0,0,0,0.028725
2020/09/18 03:24:00.000,n,240,1.44,0.72,2.16,16.4,83.2,1025.92,0,0,0,0,0.030518
2020/09/18 03:25:00.008,n,121,0.36,0.36,0.72,16.4,83.2,1025.82,0,0,0,0,0.033073
2020/09/18 03:26:00.005,n,299,1.44,1.08,2.16,16.4,83.2,1025.82,0,0,0,0,0.031357
2020/09/18 03:27:00.002,n,344,1.8,0.72,2.88,16.4,83.4,1025.82,0,0,0,0,0.034866
2020/09/18 03:28:00.000,n,166,3.24,2.88,3.6,16.4,83.4,1025.82,0,0,0,0,0.02964
2020/09/18 03:29:00.000,n,348,1.08,0.72,1.08,16.4,83.4,1025.82,0,0,0,0,0.033073
2020/09/18 03:30:00.000,n,248,0.72,0.36,1.08,16.4,83.3,1025.82,0,0,0,0,0.033989
2020/09/18 03:31:00.005,n,138,2.88,1.8,3.24,16.4,83.2,1025.82,0,0,0,0,0.033073
2020/09/18 03:32:00.003,n,100,3.24,2.88,3.24,16.4,83.2,1025.82,0,0,0,0,0.030518
2020/09/18 03:33:00.000,n,148,3.6,3.24,3.96,16.4,83.2,1025.82,0,0,0,0,0.028725
2020/09/18 03:34:00.012,n,321,5.04,4.32,5.76,16.4,83.5,1025.82,0,0,0,0,0.030518
2020/09/18 03:35:00.009,n,170,2.52,2.16,2.88,16.4,83.4,1025.82,0,0,0,0,0.032234
2020/09/18 03:36:00.006,n,138,3.24,2.88,3.6,16.4,83.2,1025.82,0,0,0,0,0.032234
2020/09/18 03:37:00.000,n,264,1.44,0.72,1.8,16.3,83.2,1025.82,0,0,0,0,0.032234
2020/09/18 03:38:00.000,n,190,2.16,1.8,2.52,16.3,83.3,1025.72,0,0,0,0,0.034866
2020/09/18 03:39:00.000,n,165,2.16,1.44,2.88,16.3,83.3,1025.72,0,0,0,0,0.034866
2020/09/18 03:40:00.000,n,191,1.8,0.72,2.52,16.3,83.4,1025.72,0,0,0,0,0.035706
2020/09/18 03:41:00.008,n,148,3.6,3.24,4.32,16.3,83.5,1025.72,0,0,0,0,0.033073
2020/09/18 03:42:00.005,n,152,4.68,4.32,5.4,16.3,83.5,1025.72,0,0,0,0,0.033989
2020/09/18 03:43:00.003,n,152,3.96,3.6,4.32,16.3,83.4,1025.72,0,0,0,0,0.033073
2020/09/18 03:44:00.000,n,257,1.44,1.08,2.16,16.3,83.4,1025.72,0,0,0,0,0.031357
2020/09/18 03:45:00.013,n,138,4.68,4.68,5.4,16.3,83.4,1025.82,0,0,0,0,0.033073
2020/09/18 03:46:00.000,n,208,2.16,1.44,3.24,16.3,83.5,1025.82,0,0,0,0,0.031357
2020/09/18 03:47:00.000,n,111,2.16,2.16,2.52,16.3,83.5,1025.82,0,0,0,0,0.033989
2020/09/18 03:48:00.004,n,58,2.88,2.52,3.24,16.3,83.4,1025.72,0,0,0,0,0.02964
2020/09/18 03:49:00.002,n,175,1.44,1.44,1.8,16.3,83.5,1025.72,0,0,0,0,0.031357
2020/09/18 03:50:00.000,n,98,2.16,1.8,2.16,16.3,83.4,1025.72,0,0,0,0,0.027885
2020/09/18 03:51:00.000,n,117,1.44,1.08,1.8,16.3,83.3,1025.72,0,0,0,0,0.025291
2020/09/18 03:52:00.009,n,23,1.08,0.72,1.44,16.3,83.4,1025.82,0,0,0,0,0.026131
2020/09/18 03:53:00.006,n,88,2.52,2.52,2.88,16.3,83.5,1025.82,0,0,0,0,0.028725
2020/09/18 03:54:00.003,n,53,1.8,1.08,2.88,16.3,83.5,1025.82,0,0,0,0,0.02964
2020/09/18 03:55:00.000,n,0,1.8,1.08,2.16,16.3,83.9,1025.82,0,0,0,0,0.028725
2020/09/18 03:56:00.000,n,162,1.08,0.72,1.44,16.4,84,1025.82,0,0,0,0,0.027885
2020/09/18 03:57:00.000,n,114,1.8,1.08,2.52,16.4,83.5,1025.82,0,0,0,0,0.024376
2020/09/18 03:58:00.006,n,15,1.44,0.72,2.16,16.4,83.3,1025.72,0,0,0,0,0.031357
2020/09/18 03:59:00.005,n,324,0.72,0.36,1.44,16.3,83.4,1025.72,0,0,0,0,0.02964
2020/09/18 04:00:00.002,n,87,1.44,1.08,1.8,16.3,83.4,1025.72,0,0,0,0,0.034828
2020/09/18 04:01:00.000,n,127,1.44,0.72,2.16,16.3,83.5,1025.72,0,0,0,0,0.038338
2020/09/18 04:02:00.014,n,149,0.72,0.36,1.08,16.3,83.4,1025.72,0,0,0,0,0.036583
2020/09/18 04:03:00.011,n,176,3.6,2.88,4.32,16.3,83.4,1025.72,0,0,0,0,0.03746
2020/09/18 04:04:00.000,n,143,0.72,0.36,1.44,16.3,83.3,1025.72,0,0,0,0,0.03746
2020/09/18 04:05:00.000,n,170,0.72,0.36,1.8,16.3,83.4,1025.72,0,0,0,0,0.035744
2020/09/18 04:06:00.002,n,281,3.96,3.6,4.68,16.3,83.8,1025.72,0,0,0,0,0.032234
2020/09/18 04:07:00.000,n,274,4.68,4.32,4.68,16.3,83.5,1025.72,0,0,0,0,0.034828
2020/09/18 04:08:00.000,n,243,2.52,1.44,3.6,16.3,84.2,1025.72,0,0,0,0,0.034828
2020/09/18 04:09:00.009,n,260,4.32,3.6,5.76,16.4,83.7,1025.72,0,0,0,0,0.039177
2020/09/18 04:10:00.006,n,233,2.88,2.52,3.24,16.4,83.7,1025.82,0,0,0,0,0.034828
2020/09/18 04:11:00.003,n,277,1.8,1.08,2.88,16.4,83.4,1025.82,0,0,0,0,0.036583
2020/09/18 04:12:00.001,n,265,3.96,3.24,4.32,16.3,83.2,1025.82,0,0,0,0,0.033989
2020/09/18 04:13:00.000,n,151,1.8,1.08,2.52,16.3,83.2,1025.82,0,0,0,0,0.035744
2020/09/18 04:14:00.000,n,256,2.52,2.16,2.88,16.200002,83.3,1025.82,0,0,0,0,0.035744
2020/09/18 04:15:00.000,n,230,0.72,0.36,1.08,16.200002,83.3,1025.82,0,0,0,0,0.034828
2020/09/18 04:16:00.005,n,101,1.8,1.08,2.52,16.200002,83.6,1025.82,0,0,0,0,0.032234
2020/09/18 04:17:00.003,n,324,3.24,2.52,3.6,16.200002,83.8,1025.82,0,0,0,0,0.033989
2020/09/18 04:18:00.000,n,151,1.08,0.72,1.08,16.200002,83.8,1025.82,0,0,0,0,0.030479
2020/09/18 04:19:00.012,n,235,2.88,1.8,3.96,16.200002,83.7,1025.92,0,0,0,0,0.034828
2020/09/18 04:20:00.009,n,146,3.6,2.16,5.04,16.200002,83.6,1025.92,0,0,0,0,0.034828
2020/09/18 04:21:00.006,n,223,1.08,0.36,1.8,16.200002,83.7,1025.92,0,0,0,0,0.033989
2020/09/18 04:22:00.000,n,205,2.88,2.52,3.24,16.200002,83.6,1025.92,0,0,0,0,0.032234
2020/09/18 04:23:00.000,n,253,2.16,1.08,2.88,16.200002,83.6,1025.92,0,0,0,0,0.033989
2020/09/18 04:24:00.000,n,181,3.96,2.88,4.68,16.200002,83.8,1025.92,0,0,0,0,0.032234
2020/09/18 04:25:00.000,n,259,2.52,1.8,2.88,16.200002,83.7,1025.92,0,0,0,0,0.032234
2020/09/18 04:26:00.008,n,220,1.08,0.36,2.16,16.200002,83.8,1026.02,0,0,0,0,0.032234
2020/09/18 04:27:00.005,n,196,1.8,1.08,2.52,16.200002,83.8,1026.02,0,0,0,0,0.032234
2020/09/18 04:28:00.001,n,85,2.88,1.8,4.32,16.200002,83.9,1026.02,0,0,0,0,0.033112
2020/09/18 04:29:00.000,n,193,1.08,0.72,1.44,16.200002,84,1026.02,0,0,0,0,0.025253
2020/09/18 04:30:00.011,n,245,2.16,1.8,2.88,16.200002,84,1026.02,0,0,0,0,0.032234
2020/09/18 04:31:00.000,n,111,2.88,2.52,3.24,16.3,83.9,1026.02,0,0,0,0,0.029602
2020/09/18 04:32:00.000,n,140,0.72,0,2.16,16.3,83.8,1026.02,0,0,0,0,0.032234
2020/09/18 04:33:00.002,n,314,1.08,0,1.8,16.3,83.8,1026.02,0,0,0,0,0.032234
2020/09/18 04:34:00.000,n,211,2.16,1.8,3.24,16.3,83.8,1026.02,0,0,0,0,0.030479
2020/09/18 04:35:00.000,n,221,2.52,1.8,2.88,16.3,83.8,1026.02,0,0,0,0,0.031395
2020/09/18 04:36:00.009,n,164,3.24,3.24,3.24,16.3,83.8,1026.02,0,0,0,0,0.029602
2020/09/18 04:37:00.006,n,144,3.24,3.24,3.24,16.3,83.7,1026.02,0,0,0,0,0.028763
2020/09/18 04:38:00.003,n,153,2.88,2.88,3.24,16.3,83.7,1026.12,0,0,0,0,0.031395
2020/09/18 04:39:00.001,n,194,1.44,0.72,1.8,16.3,83.6,1026.12,0,0,0,0,0.029602
2020/09/18 04:40:00.000,n,196,2.52,1.8,2.88,16.3,83.6,1026.12,0,0,0,0,0.027885
2020/09/18 04:41:00.000,n,138,5.04,5.04,5.4,16.3,83.6,1026.12,0,0,0,0,0.032234
2020/09/18 04:42:00.000,n,152,1.8,1.08,2.52,16.3,83.6,1026.12,0,0,0,0,0.031395
2020/09/18 04:43:00.005,n,189,2.16,1.44,3.24,16.3,83.5,1026.12,0,0,0,0,0.028763
2020/09/18 04:44:00.003,n,140,3.24,2.52,3.6,16.3,83.6,1026.22,0,0,0,0,0.031395
2020/09/18 04:45:00.000,n,89,2.88,1.8,3.6,16.3,83.5,1026.22,0,0,0,0,0.030479
2020/09/18 04:46:00.000,n,143,1.44,0.72,2.52,16.3,83.6,1026.22,0,0,0,0,0.029602
2020/09/18 04:47:00.010,n,142,1.44,0.72,2.16,16.3,83.5,1026.22,0,0,0,0,0.030479
2020/09/18 04:48:00.009,n,118,2.88,2.52,3.24,16.3,83.4,1026.22,0,0,0,0,0.033112
2020/09/18 04:49:00.000,n,159,3.24,2.52,3.96,16.200002,83.5,1026.22,0,0,0,0,0.033989
2020/09/18 04:50:00.002,n,167,0.72,0.36,1.08,16.200002,83.5,1026.22,0,0,0,0,0.032234
2020/09/18 04:51:00.000,n,182,2.52,1.8,2.88,16.200002,83.5,1026.22,0,0,0,0,0.032234
2020/09/18 04:52:00.000,n,305,1.08,0.72,1.08,16.3,83.5,1026.22,0,0,0,0,0.032234
2020/09/18 04:53:00.000,n,184,3.6,2.88,4.32,16.3,83.5,1026.32,0,0,0,0,0.033112
2020/09/18 04:54:00.008,n,158,2.16,0.72,3.6,16.3,83.5,1026.32,0,0,0,0,0.034828